Location: Luz Observatory
(34.5000°N, 117.2833°W)
Time: 18:32:15
(UTC-07:00)

Hubble Space Telescope - Visible Passes

Search period start: 25 August 2016 00:00
Search period end: 04 September 2016 00:00
Orbit: 539 x 543 km, 28.5° (Epoch: 25 August)

Date Brightness Start Highest point End Pass type
(mag) Time Alt. Az. Time Alt. Az. Time Alt. Az.
25 Aug 2.6 21:11:01 10° WSW 21:13:46 20° SSW 21:13:46 20° SSW visible
26 Aug 2.7 21:01:31 10° WSW 21:04:16 17° SSW 21:04:28 17° SSW visible
27 Aug 3.0 20:52:11 10° SW 20:54:25 14° SSW 20:55:13 13° S visible
28 Aug 3.2 20:43:13 10° SW 20:44:32 11° SSW 20:45:52 10° S visible
